Flag for U.S.A. Weather past 2 weeks in Lancaster, California, U.S.A.

Now
74 °F

Clear.


Feels Like: 77 °F
Forecast: 64 / 92 °F
Wind: 20 mph from West

Location: Lancaster / Fox Field

Current Time: Aug 30, 2015 at 10:50:23 PM

Latest Report: Aug 30, 2015 at 9:56 PM


Visibility: 10 mi

Pressure: 29.85 "Hg (27.48 "Hg at 718m altitude)

Humidity: 43%

Dew point: 50 °F

Location of LancasterLocation

Historic Weather in Lancaster — Graph

°F

Lancaster temperature yesterday

Maximum temperature yesterday: 99 °F (at 2:56 PM)
Minimum temperature yesterday: 76 °F (at 4:56 AM)
Average temperature yesterday: 87 °F

Past Weeks' High & Low Weather Summary

 TemperatureHumidityPressure
High107 °F (Aug 16, 2:56 PM)66% (Aug 30, 5:56 AM)30.03 "Hg (Aug 30, 5:56 AM)
Low63 °F (Aug 24, 5:56 AM)5% (Aug 19, 4:56 PM)29.72 "Hg (Aug 20, 3:56 PM)
Average85 °F26%29.87 "Hg
* Reported Aug 15 9:56 PM — Aug 30 9:56 PM, Lancaster, Weather by CustomWeather, © 2015

Note: Actual official high and low records may vary slightly from our data, if they occured in-between our weather recording intervals... More about our weather records

Advertising

Lancaster weather history for previous 24 hours

 ConditionsComfort  
Time TempWeatherWind HumidityBarometerVisibility
9:56 PM
Sun, Aug 30
74 °FClear.20 mph43%29.85 "Hg10 mi
8:56 PM75 °FClear.24 mph42%29.84 "Hg10 mi
7:56 PM78 °FSunny.24 mph37%29.83 "Hg10 mi
6:56 PM82 °FSunny.25 mph33%29.83 "Hg10 mi
5:56 PM89 °FSunny.23 mph26%29.82 "Hg10 mi
4:56 PM92 °FSunny.22 mph25%29.81 "Hg10 mi
3:56 PM93 °FSunny.18 mph26%29.82 "Hg10 mi
1:56 PM94 °FSunny.16 mph25%29.86 "Hg10 mi
12:56 PM92 °FSunny.10 mph26%29.87 "Hg10 mi
11:56 AM91 °FSunny.13 mph26%29.89 "Hg10 mi
10:56 AM89 °FSunny.10 mph27%29.90 "Hg10 mi
9:56 AM87 °FSunny.17 mph29%29.90 "Hg10 mi
8:56 AM81 °FSunny.10 mph39%29.91 "Hg10 mi
7:56 AM73 °FSunny.18 mph53%29.92 "Hg10 mi
6:56 AM70 °FClear.13 mph64%29.91 "Hg10 mi
5:56 AM70 °FClear.18 mph66%29.89 "Hg10 mi
4:56 AM72 °FClear.10 mph61%29.89 "Hg10 mi
3:56 AM74 °FClear.20 mph53%29.88 "Hg10 mi
2:56 AM75 °FClear.15 mph50%29.88 "Hg10 mi
1:56 AM76 °FClear.22 mph43%29.88 "Hg10 mi
12:56 AM78 °FClear.16 mph39%29.89 "Hg10 mi
11:56 PM
Sat, Aug 29
79 °FClear.10 mph35%29.88 "Hg10 mi
10:56 PM80 °FClear.10 mph32%29.88 "Hg10 mi
Weather by CustomWeather, © 2015

See weather overviewHow to use our weather pages